Regional Weather Roundup
Issued by NWS San Diego, CA

Home | Current Version | Previous Version | Text Only | Print | Product List | Glossary On
Versions: 1 2 3 4 5 6 7 8 9 10 11 12 13 14 15 16 17 18 19 20 21 22 23 24 25 26 27 28 29 30 31 32 33 34 35 36 37 38 39 40 41 42 43 44 45 46 47 48 49 50
000
ASUS46 KSGX 062311
RWRSGX

SAN DIEGO HOURLY WEATHER ROUNDUP
NATIONAL WEATHER SERVICE SAN DIEGO CA
400 PM PDT WED MAY 06 2015

NOTE: "FAIR" INDICATES FEW OR NO CLOUDS BELOW 12,000 FEET WITH NO
SIGNIFICANT WEATHER AND/OR OBSTRUCTIONS TO VISIBILITY.

CAZ042-043-060-061-PZZ750-775-070000-

GREATER SAN DIEGO AREA

CITY           SKY/WX    TMP DP  RH WIND       PRES   REMARKS
LINDBERGH FLD  PTSUNNY   65  51  60 W12       29.89F
POINT LOMA       N/A     62  53  71 W12         N/A
CHULA VISTA      N/A     66  56  68 W5        29.81F
IMPERIAL BEACH PTSUNNY   64  54  69 W12       29.88F
BROWN FIELD    CLOUDY    63  52  67 W8G20     29.87F
MIRAMAR MCAS   CLOUDY    66  51  58 W12       29.86F
MONTGOMERY FLD PTSUNNY   64  52  64 W12       29.87F

$$

NORTH SAN DIEGO COUNTY

CITY           SKY/WX    TMP DP  RH WIND       PRES   REMARKS
CAMP PENDLETON MOSUNNY   67  50  54 W9        29.85F
OCEANSIDE AP   MOSUNNY   65  51  60 W10G18    29.85F
VISTA            N/A     66  53  63 SW3       29.84F
CARLSBAD       PTSUNNY   63  51  65 W9        29.85F
FALLBROOK        N/A     68  53  58 S8        29.84F
SAN MARCOS       N/A     62  53  71 SW8       29.84F
POWAY            N/A     65  53  65 CALM      29.87F

$$

EAST SAN DIEGO COUNTY

CITY           SKY/WX    TMP DP  RH WIND       PRES   REMARKS
RAMONA         CLOUDY    61  48  62 W10       29.86S
SANTEE LAKES     N/A     65  53  65 SW9       29.86F
LA MESA          N/A     62  53  72 W12       29.81F
DESCANSO N       N/A     54  46  76 W9        29.75F
CAMPO            N/A     57  46  66 SW14      29.82F

$$

ORANGE COUNTY AND THE LOS ANGELES BASIN

CITY           SKY/WX    TMP DP  RH WIND       PRES   REMARKS
JOHN WAYNE AP  PTSUNNY   66  48  52 S10       29.85F
LAKE FOREST FR   N/A     62  48  62 CALM      29.75F
SANTA ANA        N/A     70  53  54 W1        29.80F
HUNTINGTON BCH   N/A     65  55  71 W8        29.88F
LOS ALAMITOS   MOSUNNY   68  51  54 SW14      29.85F
FULLERTON      CLOUDY    69  47  45 SW6       29.83F
LONG BEACH     SUNNY     68  49  50 S13       29.85F
L.A. AP        MOSUNNY   63  50  62 W16       29.86F
L.A. DOWNTOWN  SUNNY     66  50  56 VRB5      29.84F

$$

THE INLAND EMPIRE

CITY           SKY/WX    TMP DP  RH WIND       PRES   REMARKS
CORONA         MOSUNNY   67  47  48 W10       29.83F
CHINO          PTSUNNY   69  46  43 SW15      29.84F
ONTARIO        CLOUDY    66  46  48 W9        29.83F
SAN BERNARDINO PTSUNNY   66  41  39 W7        29.84F
RIVERSIDE AP   PTSUNNY   68  47  46 W10       29.83F
MARCH ARB      MOSUNNY   67  47  47 W9G18     29.82F
HORSETHIEF CYN   N/A     67  46  46 N5        29.79F
MENIFEE          N/A     67  52  57 S5        29.87F
HEMET EAST       N/A     69  45  42 CALM      29.80F
FRENCH VALLEY  FAIR      66  48  52 SW9G17    29.83F
TEMECULA         N/A     69  52  56 SW9       29.78F

$$

SAN BERNARDINO AND RIVERSIDE COUNTY MOUNTAINS

CITY           SKY/WX    TMP DP  RH WIND       PRES   REMARKS
BIG BEAR AP    SUNNY     54  28  37 W9        29.88F

$$

SOUTHERN DESERT INCLUDING THE COACHELLA VALLEY

CITY           SKY/WX    TMP DP  RH WIND       PRES   REMARKS
PALM SPRINGS   SUNNY     83  40  21 NW18      29.68F
THOUSAND PALMS   N/A     82  43  25 NW14      29.66F
THERMAL        SUNNY     86  37  17 SE9       29.63F
BLYTHE         SUNNY     85  44  23 SE20      29.65F
IMPERIAL AP    SUNNY     84  40  21 S10       29.65F
EL CENTRO NAS  MOSUNNY   87  32  14 SW15G23   29.67F
YUMA AZ        MOSUNNY   83  41  22 S10       29.67F
MEXICALI       SUNNY     84  39  20 E2        29.67F

$$

UPPER DESERT

CITY           SKY/WX    TMP DP  RH WIND       PRES   REMARKS
VICTORVILLE AP SUNNY     70  37  30 S21       29.75S
HESPERIA         N/A     63  43  49 W16       29.85F
APPLE VALLEY     N/A     66  39  37 S18G24    29.84S
PALMDALE       SUNNY     64  42  44 SW28G35   29.76F
LANCASTER      SUNNY     63  43  48 SW31G44   29.75F
EDWARDS AFB    MOSUNNY   71  38  30 SW29G40   29.70F
DAGGETT        SUNNY     83  23  11 SW21G29   29.65F
29 PALMS N     MOSUNNY   81  26  13 SW21G29   29.73F
NEEDLES        SUNNY     87  35  15 S17G29    29.63F

$$

REGIONAL REPORTS

CITY           SKY/WX    TMP DP  RH WIND       PRES   REMARKS
SANTA BARBARA  SUNNY     67  46  47 W17G23    29.84F
SANDBERG       SUNNY     56  43  61 SW15G21   29.85F
MT. WILSON       N/A     46  46 100 SW1         N/A
LAS VEGAS NV   MOSUNNY   84  22  10 S20G31    29.56F
PHOENIX AZ     PTSUNNY   89  29  11 S7        29.65F
TIJUANA        CLOUDY    63  50  63 SW9       29.89F
ENSENADA NW      N/A     62  32  32 W7        29.86F

$$

OFFSHORE ISLANDS

CITY           SKY/WX    TMP DP  RH WIND       PRES   REMARKS
CATALINA ARPT  CLOUDY    53  49  86 SW8       29.88F
SAN CLEMENTE I PTSUNNY   61  47  59 W14       29.89F
SAN NICOLAS IS MOSUNNY   59  43  55 NW25G36   29.89F

$$

MARINE AND OFFSHORE BUOY REPORTS

STATION/POSITION SKY/WX   TEMP    WIND        PRES    SWELL
                          AIR SEA DIR/SP/G            HT/PER/DIR
                          (F)     (DEG/KT/KT) (MB)    (FT/S/D)
TANNER BANKS               58 61  320/ 21/ 25 1012.9F   7/300/13
S CLEMENTE BASIN           59 64  290/ 16/ 17 1011.7F   5/250/13
SAN NICOLAS IS.               59                N/A     7/280/13
SO. S. ROSA ISLA           57 60  320/ 21/ 25 1012.0F   7/13
W. S. BARBARA CH           55 56  330/ 14/ 17 1012.4F   8/310/12
S. MONICA BASIN            58 60  260/  4/  4 1011.7F   3/170/15
S PEDRO CHANNEL               64                N/A     2/180/14
DANA POINT                    60                N/A     3/190/15
OCEANSIDE OFFSHR              62                N/A     3/190/14
TORREY PINES OTR              64                N/A     3/200/15
LA JOLLA 1                 61 66  270/  6/  9 1011.7F
MISSION BAY BUOY              64                N/A     3/190/15
SAN DIEGO BAY                                 1012.3F
POINT LOMA SOUTH              65                N/A     5/180/15

$$



USA.gov is the U.S. government's official web portal to all federal, state and local government web resources and services.